| time (UTC) | temp F | wind direction | speed MPH | gust MPH | rain 1hr in | rain 24hr in | rain mn in | humidity % | barometer mb |
| 20260505053045 | 49 | 27 | 1.0 | 6.0 | 0.00 | 0.00 | 0.00 | 100 | 1013.3 |
| 20260505052535 | 49 | 74 | 1.0 | 6.0 | 0.00 | 0.00 | 0.00 | 100 | 1013.3 |
| 20260505052035 | 49 | 34 | 2.0 | 6.0 | 0.00 | 0.00 | 0.00 | 100 | 1013.4 |
| 20260505051549 | 50 | 5 | 2.0 | 6.0 | 0.00 | 0.00 | 0.00 | 100 | 1013.4 |
| 20260505051035 | 49 | 13 | 2.0 | 7.0 | 0.00 | 0.00 | 0.00 | 100 | 1013.4 |
| 20260505050533 | 49 | 360 | 2.0 | 7.0 | 0.00 | 0.00 | 0.00 | 100 | 1013.3 |
| 20260505041541 | 50 | 0 | 0.0 | 3.0 | 0.00 | 0.00 | 0.00 | 100 | 1013.6 |
| 20260505041034 | 50 | 24 | 0.0 | 3.0 | 0.00 | 0.00 | 0.00 | 100 | 1013.7 |
| 20260505040534 | 50 | 0 | 0.0 | 3.0 | 0.00 | 0.00 | 0.00 | 100 | 1013.7 |
| 20260505040058 | 50 | 0 | 0.0 | 3.0 | 0.00 | 0.00 | 0.00 | 100 | 1013.7 |
| 20260505035534 | 50 | 32 | 0.0 | 4.0 | 0.00 | 0.00 | 0.00 | 100 | 1013.7 |
| 20260505035035 | 50 | 0 | 1.0 | 4.0 | 0.00 | 0.00 | 0.00 | 100 | 1013.7 |
| 20260505034544 | 50 | 0 | 1.0 | 4.0 | 0.00 | 0.00 | 0.00 | 100 | 1013.8 |
| 20260505034033 | 50 | 17 | 1.0 | 4.0 | 0.00 | 0.00 | 0.00 | 100 | 1013.8 |
| 20260505033533 | 50 | 44 | 1.0 | 3.0 | 0.00 | 0.00 | 0.00 | 100 | 1013.8 |
| 20260505033045 | 50 | 36 | 0.0 | 3.0 | 0.00 | 0.00 | 0.00 | 100 | 1013.9 |
| 20260505032534 | 50 | 42 | 0.0 | 2.0 | 0.00 | 0.00 | 0.00 | 100 | 1013.9 |
| 20260505032036 | 50 | 0 | 0.0 | 3.0 | 0.00 | 0.00 | 0.00 | 100 | 1013.9 |
| 20260505031550 | 50 | 0 | 0.0 | 3.0 | 0.00 | 0.00 | 0.00 | 100 | 1013.9 |
| 20260505031032 | 50 | 40 | 0.0 | 4.0 | 0.00 | 0.00 | 0.00 | 100 | 1013.9 |
| 20260505030532 | 50 | 64 | 0.0 | 4.0 | 0.00 | 0.00 | 0.00 | 100 | 1013.9 |
| 20260505030044 | 50 | 40 | 0.0 | 3.0 | 0.00 | 0.00 | 0.00 | 100 | 1013.8 |
| 20260505025533 | 50 | 0 | 0.0 | 3.0 | 0.00 | 0.00 | 0.00 | 100 | 1013.9 |
| 20260505025035 | 50 | 0 | 0.0 | 3.0 | 0.00 | 0.00 | 0.00 | 100 | 1013.9 |
| 20260505024542 | 50 | 0 | 0.0 | 5.0 | 0.00 | 0.00 | 0.00 | 100 | 1014.0 |
| 20260505024035 | 51 | 66 | 0.0 | 5.0 | 0.00 | 0.00 | 0.00 | 100 | 1014.0 |
| 20260505023532 | 51 | 56 | 1.0 | 5.0 | 0.00 | 0.00 | 0.00 | 100 | 1014.0 |
| 20260505023042 | 51 | 0 | 0.0 | 4.0 | 0.00 | 0.00 | 0.00 | 100 | 1014.1 |
| 20260505022531 | 51 | 44 | 1.0 | 5.0 | 0.00 | 0.00 | 0.00 | 100 | 1014.0 |
| 20260505022032 | 51 | 21 | 1.0 | 5.0 | 0.00 | 0.00 | 0.00 | 100 | 1014.1 |
| 20260505021544 | 51 | 51 | 1.0 | 5.0 | 0.00 | 0.00 | 0.00 | 100 | 1014.0 |
| 20260505021033 | 51 | 0 | 1.0 | 4.0 | 0.00 | 0.00 | 0.00 | 100 | 1014.2 |
| 20260505020532 | 51 | 55 | 0.0 | 4.0 | 0.00 | 0.00 | 0.00 | 100 | 1014.1 |
| 20260505020044 | 51 | 37 | 1.0 | 4.0 | 0.00 | 0.00 | 0.00 | 100 | 1014.1 |
| 20260505015533 | 51 | 52 | 1.0 | 4.0 | 0.00 | 0.00 | 0.00 | 100 | 1014.1 |
| 20260505015031 | 51 | 72 | 0.0 | 2.0 | 0.00 | 0.00 | 0.00 | 100 | 1014.2 |
| 20260505014543 | 51 | 0 | 0.0 | 3.0 | 0.00 | 0.00 | 0.00 | 100 | 1014.2 |
| 20260505014034 | 51 | 63 | 0.0 | 4.0 | 0.00 | 0.00 | 0.00 | 100 | 1014.1 |
| 20260505013531 | 51 | 0 | 0.0 | 4.0 | 0.00 | 0.00 | 0.00 | 100 | 1014.3 |
| 20260505013042 | 51 | 0 | 0.0 | 4.0 | 0.00 | 0.00 | 0.00 | 100 | 1014.4 |
| 20260505012531 | 51 | 31 | 0.0 | 4.0 | 0.00 | 0.00 | 0.00 | 100 | 1014.2 |
| 20260505012035 | 51 | 0 | 1.0 | 4.0 | 0.00 | 0.00 | 0.00 | 100 | 1014.2 |
| 20260505011545 | 51 | 19 | 1.0 | 4.0 | 0.00 | 0.00 | 0.00 | 100 | 1014.1 |
| 20260505011032 | 51 | 60 | 1.0 | 4.0 | 0.00 | 0.00 | 0.00 | 100 | 1014.1 |
| 20260505010531 | 51 | 61 | 1.0 | 3.0 | 0.00 | 0.00 | 0.00 | 100 | 1014.4 |
| 20260505010055 | 51 | 44 | 0.0 | 4.0 | 0.00 | 0.00 | 0.00 | 100 | 1014.5 |
| 20260505005532 | 51 | 32 | 0.0 | 4.0 | 0.00 | 0.00 | 0.00 | 100 | 1014.4 |
| 20260505005031 | 51 | 57 | 1.0 | 4.0 | 0.00 | 0.00 | 0.00 | 100 | 1014.5 |
| 20260505004544 | 51 | 46 | 0.0 | 3.0 | 0.00 | 0.00 | 0.00 | 100 | 1014.5 |
| 20260505004033 | 51 | 0 | 1.0 | 3.0 | 0.00 | 0.00 | 0.00 | 100 | 1014.6 |
| 20260505003533 | 51 | 0 | 0.0 | 3.0 | 0.00 | 0.00 | 0.00 | 100 | 1014.6 |
| 20260505003043 | 52 | 24 | 0.0 | 3.0 | 0.00 | 0.00 | 0.00 | 100 | 1014.5 |
| 20260505002532 | 52 | 56 | 0.0 | 6.0 | 0.00 | 0.00 | 0.00 | 100 | 1014.7 |
| 20260505002032 | 52 | 0 | 0.0 | 6.0 | 0.00 | 0.00 | 0.00 | 100 | 1014.8 |
| 20260505001542 | 52 | 17 | 2.0 | 6.0 | 0.00 | 0.00 | 0.00 | 100 | 1014.7 |
| 20260505001031 | 52 | 39 | 1.0 | 7.0 | 0.00 | 0.00 | 0.00 | 100 | 1014.6 |
| 20260505000529 | 52 | 65 | 1.0 | 9.0 | 0.00 | 0.00 | 0.00 | 100 | 1014.8 |
| 20260505000049 | 52 | 46 | 1.0 | 9.0 | 0.00 | 0.00 | 0.00 | 100 | 1014.7 |
| 20260504235534 | 52 | 26 | 1.0 | 9.0 | 0.00 | 0.00 | 0.00 | 100 | 1014.7 |
| 20260504235032 | 52 | 41 | 1.0 | 7.0 | 0.00 | 0.00 | 0.00 | 100 | 1014.7 |
| 20260504234538 | 52 | 77 | 0.0 | 7.0 | 0.00 | 0.00 | 0.00 | 100 | 1014.7 |
| 20260504234032 | 52 | 84 | 1.0 | 6.0 | 0.00 | 0.00 | 0.00 | 100 | 1014.6 |
| 20260504233532 | 52 | 31 | 1.0 | 4.0 | 0.00 | 0.00 | 0.00 | 100 | 1014.7 |
| 20260504233037 | 52 | 30 | 0.0 | 5.0 | 0.00 | 0.00 | 0.00 | 100 | 1014.7 |
| 20260504232533 | 52 | 28 | 1.0 | 5.0 | 0.00 | 0.00 | 0.00 | 100 | 1014.7 |
| 20260504232034 | 52 | 51 | 1.0 | 9.0 | 0.00 | 0.00 | 0.00 | 100 | 1014.6 |
| 20260504231541 | 52 | 49 | 2.0 | 9.0 | 0.00 | 0.00 | 0.00 | 100 | 1014.6 |
| 20260504231033 | 52 | 30 | 2.0 | 9.0 | 0.00 | 0.00 | 0.00 | 100 | 1014.7 |
| 20260504230532 | 53 | 68 | 2.0 | 9.0 | 0.00 | 0.00 | 0.00 | 100 | 1014.7 |
| 20260504230043 | 53 | 41 | 1.0 | 6.0 | 0.00 | 0.00 | 0.00 | 100 | 1014.9 |
| 20260504225535 | 53 | 44 | 2.0 | 7.0 | 0.00 | 0.00 | 0.00 | 100 | 1014.8 |
| 20260504225034 | 53 | 0 | 2.0 | 7.0 | 0.00 | 0.00 | 0.00 | 100 | 1014.9 |
| 20260504224541 | 53 | 51 | 1.0 | 4.0 | 0.00 | 0.00 | 0.00 | 100 | 1015.0 |
| 20260504224034 | 53 | 0 | 1.0 | 4.0 | 0.00 | 0.00 | 0.00 | 100 | 1015.0 |
| 20260504223532 | 53 | 36 | 1.0 | 4.0 | 0.00 | 0.00 | 0.00 | 100 | 1015.0 |
| 20260504223038 | 53 | 0 | 0.0 | 4.0 | 0.00 | 0.00 | 0.00 | 100 | 1015.0 |
| 20260504222531 | 53 | 0 | 0.0 | 3.0 | 0.00 | 0.00 | 0.00 | 100 | 1014.9 |
| 20260504222031 | 53 | 0 | 0.0 | 3.0 | 0.00 | 0.00 | 0.00 | 100 | 1014.9 |
| 20260504221547 | 53 | 42 | 0.0 | 4.0 | 0.00 | 0.00 | 0.00 | 100 | 1015.0 |
| 20260504221033 | 54 | 38 | 1.0 | 4.0 | 0.00 | 0.00 | 0.00 | 100 | 1014.9 |
| 20260504220533 | 54 | 32 | 0.0 | 4.0 | 0.00 | 0.00 | 0.00 | 100 | 1015.0 |
| 20260504220053 | 54 | 0 | 0.0 | 3.0 | 0.00 | 0.00 | 0.00 | 100 | 1015.0 |
| 20260504215532 | 54 | 32 | 0.0 | 4.0 | 0.00 | 0.00 | 0.00 | 100 | 1015.0 |
| 20260504215032 | 54 | 0 | 0.0 | 4.0 | 0.00 | 0.00 | 0.00 | 100 | 1014.9 |
| 20260504214544 | 54 | 53 | 0.0 | 4.0 | 0.00 | 0.00 | 0.00 | 100 | 1014.9 |
| 20260504214032 | 54 | 45 | 0.0 | 3.0 | 0.00 | 0.00 | 0.00 | 100 | 1014.9 |
| 20260504213533 | 54 | 66 | 1.0 | 3.0 | 0.00 | 0.00 | 0.00 | 100 | 1015.0 |
| 20260504213058 | 54 | 0 | 0.0 | 5.0 | 0.00 | 0.00 | 0.00 | 100 | 1015.0 |
| 20260504212532 | 54 | 0 | 0.0 | 5.0 | 0.00 | 0.00 | 0.00 | 100 | 1015.0 |
| 20260504212032 | 54 | 13 | 1.0 | 5.0 | 0.00 | 0.00 | 0.00 | 100 | 1015.2 |
| 20260504211542 | 54 | 45 | 1.0 | 3.0 | 0.00 | 0.00 | 0.00 | 100 | 1015.1 |
| 20260504211033 | 54 | 44 | 0.0 | 3.0 | 0.00 | 0.00 | 0.00 | 100 | 1015.2 |
| 20260504210533 | 54 | 51 | 0.0 | 3.0 | 0.00 | 0.00 | 0.00 | 100 | 1015.2 |
| 20260504210037 | 54 | 106 | 0.0 | 4.0 | 0.00 | 0.00 | 0.00 | 100 | 1015.1 |
| 20260504205533 | 55 | 0 | 1.0 | 4.0 | 0.00 | 0.00 | 0.00 | 100 | 1015.2 |
| 20260504205033 | 55 | 0 | 1.0 | 4.0 | 0.00 | 0.00 | 0.00 | 100 | 1015.2 |
| 20260504204541 | 55 | 48 | 1.0 | 5.0 | 0.00 | 0.00 | 0.00 | 100 | 1015.1 |
| 20260504204033 | 55 | 36 | 1.0 | 5.0 | 0.00 | 0.00 | 0.00 | 100 | 1015.1 |
| 20260504203532 | 55 | 22 | 1.0 | 5.0 | 0.00 | 0.00 | 0.00 | 100 | 1015.2 |
| 20260504203043 | 55 | 56 | 1.0 | 5.0 | 0.00 | 0.00 | 0.00 | 100 | 1015.2 |
| 20260504202533 | 55 | 0 | 1.0 | 4.0 | 0.00 | 0.00 | 0.00 | 100 | 1015.1 |
| 20260504202032 | 55 | 0 | 1.0 | 6.0 | 0.00 | 0.00 | 0.00 | 100 | 1015.1 |
| 20260504201542 | 55 | 67 | 0.0 | 7.0 | 0.00 | 0.00 | 0.00 | 100 | 1015.0 |
| 20260504201032 | 55 | 59 | 1.0 | 7.0 | 0.00 | 0.00 | 0.00 | 100 | 1015.1 |
| 20260504200532 | 56 | 39 | 2.0 | 7.0 | 0.00 | 0.00 | 0.00 | 100 | 1015.0 |
| 20260504200049 | 56 | 11 | 2.0 | 6.0 | 0.00 | 0.00 | 0.00 | 100 | 1014.9 |
| 20260504195533 | 56 | 32 | 0.0 | 5.0 | 0.00 | 0.00 | 0.00 | 100 | 1014.9 |
| 20260504195033 | 56 | 0 | 0.0 | 3.0 | 0.00 | 0.00 | 0.00 | 100 | 1014.9 |
| 20260504194544 | 56 | 57 | 1.0 | 3.0 | 0.00 | 0.00 | 0.00 | 100 | 1014.7 |
| 20260504194033 | 56 | 0 | 0.0 | 3.0 | 0.00 | 0.00 | 0.00 | 100 | 1014.7 |
| 20260504193534 | 56 | 26 | 1.0 | 3.0 | 0.00 | 0.00 | 0.00 | 100 | 1014.6 |
| 20260504193055 | 56 | 55 | 0.0 | 3.0 | 0.00 | 0.00 | 0.00 | 100 | 1014.5 |
| 20260504192532 | 56 | 51 | 0.0 | 2.0 | 0.00 | 0.00 | 0.00 | 100 | 1014.5 |
| 20260504192032 | 56 | 0 | 0.0 | 0.0 | 0.00 | 0.00 | 0.00 | 100 | 1014.5 |
| 20260504191543 | 57 | 0 | 0.0 | 0.0 | 0.00 | 0.00 | 0.00 | 100 | 1014.4 |
| 20260504191032 | 57 | 0 | 0.0 | 0.0 | 0.00 | 0.00 | 0.00 | 100 | 1014.5 |
| 20260504190534 | 57 | 0 | 0.0 | 0.0 | 0.00 | 0.00 | 0.00 | 100 | 1014.4 |
| 20260504190049 | 57 | 0 | 0.0 | 5.0 | 0.00 | 0.00 | 0.00 | 100 | 1014.5 |
| 20260504185533 | 57 | 0 | 0.0 | 5.0 | 0.00 | 0.00 | 0.00 | 100 | 1014.3 |
| 20260504185033 | 57 | 46 | 0.0 | 5.0 | 0.00 | 0.00 | 0.00 | 100 | 1014.3 |
| 20260504184543 | 58 | 51 | 0.0 | 5.0 | 0.00 | 0.00 | 0.00 | 100 | 1014.2 |
| 20260504184033 | 58 | 70 | 0.0 | 5.0 | 0.00 | 0.00 | 0.00 | 100 | 1014.3 |
| 20260504183533 | 58 | 81 | 1.0 | 4.0 | 0.00 | 0.00 | 0.00 | 100 | 1014.2 |
| 20260504183056 | 58 | 58 | 1.0 | 3.0 | 0.00 | 0.00 | 0.00 | 100 | 1014.2 |
| 20260504182533 | 58 | 0 | 0.0 | 5.0 | 0.00 | 0.00 | 0.00 | 100 | 1014.1 |
| 20260504182034 | 58 | 49 | 1.0 | 5.0 | 0.00 | 0.00 | 0.00 | 100 | 1014.2 |
| 20260504181543 | 59 | 46 | 2.0 | 6.0 | 0.00 | 0.00 | 0.00 | 100 | 1014.1 |
| 20260504181034 | 59 | 0 | 1.0 | 6.0 | 0.00 | 0.00 | 0.00 | 100 | 1014.1 |
| 20260504180536 | 59 | 28 | 2.0 | 5.0 | 0.00 | 0.00 | 0.00 | 100 | 1014.1 |
| 20260504180112 | 59 | 51 | 2.0 | 8.0 | 0.00 | 0.00 | 0.00 | 100 | 1014.1 |
| 20260504175532 | 59 | 136 | 2.0 | 9.0 | 0.00 | 0.00 | 0.00 | 100 | 1014.3 |
| 20260504175034 | 59 | 63 | 2.0 | 9.0 | 0.00 | 0.00 | 0.00 | 100 | 1014.3 |
| 20260504174543 | 59 | 17 | 3.0 | 8.0 | 0.00 | 0.00 | 0.00 | 100 | 1014.3 |
| 20260504174032 | 59 | 30 | 3.0 | 8.0 | 0.00 | 0.00 | 0.00 | 100 | 1014.2 |
| 20260504173533 | 60 | 0 | 2.0 | 8.0 | 0.00 | 0.00 | 0.00 | 100 | 1014.3 |
| 20260504173038 | 60 | 360 | 3.0 | 8.0 | 0.00 | 0.00 | 0.00 | 100 | 1014.2 |
| 20260504172534 | 60 | 352 | 2.0 | 6.0 | 0.00 | 0.00 | 0.00 | 100 | 1014.2 |
| 20260504172033 | 60 | 17 | 2.0 | 6.0 | 0.00 | 0.00 | 0.00 | 100 | 1014.2 |
| 20260504171548 | 60 | 65 | 2.0 | 6.0 | 0.00 | 0.00 | 0.00 | 100 | 1014.3 |
| 20260504171034 | 60 | 36 | 1.0 | 6.0 | 0.00 | 0.00 | 0.00 | 100 | 1014.2 |
| 20260504170533 | 60 | 0 | 1.0 | 8.0 | 0.00 | 0.00 | 0.00 | 100 | 1014.1 |
| 20260504151032 | 60 | 72 | 1.0 | 5.0 | 0.00 | 0.00 | 0.00 | 100 | 1014.3 |
| 20260504150534 | 60 | 43 | 1.0 | 7.0 | 0.00 | 0.00 | 0.00 | 100 | 1014.2 |
| 20260504141031 | 59 | 14 | 1.0 | 5.0 | 0.00 | 0.00 | 0.00 | 100 | 1014.4 |
| 20260504140534 | 59 | 15 | 1.0 | 4.0 | 0.00 | 0.00 | 0.00 | 100 | 1014.4 |
| 20260504130533 | 57 | 0 | 1.0 | 5.0 | 0.00 | 0.00 | 0.00 | 100 | 1014.6 |
| 20260504110533 | 55 | 5 | 2.0 | 7.0 | 0.00 | 0.00 | 0.00 | 100 | 1014.8 |
| 20260504100534 | 55 | 17 | 2.0 | 7.0 | 0.00 | 0.00 | 0.00 | 100 | 1014.7 |
| 20260504081547 | 53 | 0 | 0.0 | 3.0 | 0.00 | 0.00 | 0.00 | 100 | 1014.3 |
| 20260504081036 | 53 | 345 | 0.0 | 3.0 | 0.00 | 0.00 | 0.00 | 100 | 1014.3 |
| 20260504080535 | 53 | 360 | 0.0 | 3.0 | 0.00 | 0.00 | 0.00 | 100 | 1014.2 |